Montana Department of Transportation

Main Content

Accidents and Incidents Report

Hourly Weather Roundup

ASUS45 KTFX 251419
RWRMT 
MONTANA HOURLY WEATHER ROUNDUP
NATIONAL WEATHER SERVICE GREAT FALLS MT
819 AM MDT SAT OCT 25 2014

NOTE: "FAIR" INDICATES FEW OR NO CLOUDS BELOW 12000 FEET WITH NO
SIGNIFICANT WEATHER AND/OR OBSTRUCTIONS TO VISIBILITY.

* THESE STATIONS ARE NOT UNDER NWS QUALITY CONTROL. THEY DO NOT
   REPORT WEATHER SUCH AS PRECIPITATION OR FOG.

MTZ001.007-043-251500-
WEST OF THE DIVIDE
CITY           SKY/WX    TMP DP  RH WIND       PRES   REMARKS
KALISPELL      CLOUDY    43  37  79 NE6       29.90F 
MISSOULA       PTCLDY    39  39 100 S3        29.93F 
BUTTE          SUNNY     28  27  96 CALM      30.01F 
MULLAN PASS    FOG       36  36 100 S13       29.87F VSB M1/4 WCI  27 
* ESSEX        N/A       38  34  86 S9G14      N/A   WCI  32 
* LINCOLN      N/A       31  30  96 SE2        N/A   
* LOOKOUT PASS N/A       40  40 100 S9G17      N/A   WCI  34 
* POLSON       N/A       38  38 100 N/A        N/A   
* RONAN APT    PTSUNNY   37  36  96 N/A        N/A   
* SEELEY LAKE  N/A       36  35  96 N/A        N/A   
* THOMP F APT  CLOUDY    46  22  39 NE5        N/A   
--------------------------------

MTZ008-052.055-251500-
SOUTHWEST MONTANA
CITY           SKY/WX    TMP DP  RH WIND       PRES   REMARKS
BOZEMAN        FOG       30  28  92 CALM      30.02F VSB M1/4 
DILLON         SUNNY     30  28  92 S5        30.01F WCI  25 
W YELLOWSTONE  SUNNY     23  19  85 CALM      30.16S 
* THREE FORKS  SUNNY     36  16  44 N/A        N/A   
* BOULDER HILL N/A       34  31  89 S12        N/A   WCI  25 
* MONIDA PASS  N/A       46  24  42 S17        N/A   
* RAYNOLDS PAS N/A       32  20  61 SW4        N/A   
* WHITEHALL    N/A       35  34  96 N1         N/A   
* WISE RIVER   N/A       33  32  96 NE4        N/A   
--------------------------------

MTZ009.010-012-014-046-048-049-054-251500-
EAST SLOPES AND CENTRAL MONTANA
CITY           SKY/WX    TMP DP  RH WIND       PRES   REMARKS
CUT BANK       CLOUDY    39  30  70 E6        29.97F WCI  35 
GREAT FALLS    PTCLDY    37  36  96 CALM      29.96F 
HELENA         SUNNY     36  34  92 CALM      29.99F 
MALMSTROM AFB  PTCLDY    37  36  96 E5        29.98F WCI  33 
* CONRAD       PTSUNNY   34  30  85 N/A        N/A   
* DEARBORN     N/A       35  35 100 SW1        N/A   
* EAST GLACIER N/A       33  32  96 NW2        N/A   
* MONARCH      N/A       35  30  82 S4         N/A   
* PENDROY      N/A       35  34  96 E2         N/A   
* ROGERS PASS  N/A       37  35  92 W1         N/A   
* SAINT MARY   N/A       34  32  92 SE3        N/A   
* SWEET GRASS  N/A       42  28  58 S6         N/A   
* WHITE SULPH  N/A       39  34  82 E9G15      N/A   WCI  33 
--------------------------------

MTZ011-013-016-021-035-040-045-047-050-051-251500-
NORTH CENTRAL MONTANA
CITY           SKY/WX    TMP DP  RH WIND       PRES   REMARKS
HAVRE          CLOUDY    39  32  76 NE12      29.99F WCI  32 
LEWISTOWN      SUNNY     37  34  89 SE9       29.99F WCI  30 
* FORT BENTON  PTSUNNY   41  34  76 N3        29.98F 
* CHESTER      N/A       42  27  55 E7G12      N/A   
* DENTON       N/A       42  36  79 SE9        N/A   
* GEYSER       N/A       33  33 100 E3G8       N/A   
* JUDITH GAP   N/A       34  33  96 S4         N/A   
* LOMA         N/A       41  32  70 NE9        N/A   
--------------------------------

MTZ017.020-022.027-061-062-251500-
NORTHEAST MONTANA
CITY           SKY/WX    TMP DP  RH WIND       PRES   REMARKS
GLASGOW        PTSUNNY   37  30  76 E9        30.07F WCI  30 
GLENDIVE       SUNNY     37  30  76 S3        30.13S 
JORDAN         PTCLDY    28  25  89 CALM      30.07F 
SIDNEY         PTSUNNY   36  30  79 CALM      30.14S 
WOLF POINT     CLOUDY    37  32  82 NE6       30.11S WCI  32 
* BEAVER HILL  N/A       41  27  58 SE7        N/A   
* CIRCLE       N/A       37  31  79 N/A        N/A   
* LINDSAY DVD  N/A       42  26  53 E1         N/A   
* NAVAJO       N/A       37  24  59 S3         N/A   
--------------------------------

MTZ028.042-056.058-251500-
SOUTHCENTRAL AND SOUTHEAST MONTANA
CITY           SKY/WX    TMP DP  RH WIND       PRES   REMARKS
BAKER          SUNNY     34  28  79 CALM      30.14R 
BILLINGS       SUNNY     36  32  85 SW9       30.05S WCI  29 
LIVINGSTON     FOG       28  27  96 W3        30.04F VSB M1/4 
MILES CITY     SUNNY     39  30  70 SE3       30.09F 
* LAUREL APT   SUNNY     32  25  75 N/A        N/A   
* ROUNDUP APT  PTCLDY    34  28  79 N/A        N/A   
* ALZADA       N/A       32  28  85 E2         N/A   
* HYSHAM       N/A       46  28  50 E6         N/A   
* LAME DEER    N/A       45  29  54 SE9G14     N/A   
* REED POINT   N/A       29  28  96 N/A        N/A   
* ROSCOE HILL  N/A       40  32  73 SW2        N/A   
--------------------------------

REGIONAL REPORTS...DAKOTAS
CITY           SKY/WX    TMP DP  RH WIND       PRES   REMARKS
WILLISTON      CLOUDY    37  30  76 CALM      30.13R 
DICKINSON      PTCLDY    37  28  70 SW5       30.13R WCI  33 
BEACH          N/A       32  32 100 S5        30.14R WCI  27 
CROSBY         SUNNY     28  28 100 S6        30.12R WCI  21 
TIOGA          SUNNY     27  27 100 SW5       30.16R WCI  21 
BISMARCK       PTSUNNY   41  32  70 CALM      30.16R 
GRAND FORKS    SUNNY     43  32  65 W9        30.05R 
FARGO          SUNNY     43  32  65 W12       30.08R 
BUFFALO SD     PTCLDY    43  30  60 CALM      30.08S 
RAPID CITY     PTCLDY    39  30  70 W3        30.17R 
--------------------------------

REGIONAL REPORTS...WYOMING/IDAHO/WASHINGTON
CITY           SKY/WX    TMP DP  RH WIND       PRES   REMARKS
GILLETTE       PTCLDY    41  34  76 S17       30.12S 
SHERIDAN       PTCLDY    28  25  89 SW3       30.07F 
CODY           SUNNY     36  27  70 CALM      30.08S 
YELLOWSTONE LA SUNNY     27  23  85 NW3       30.23F 
SALMON         CLOUDY    41  37  86 S7        30.00F 
MULLAN PASS    FOG       36  36 100 S13       29.87S VSB M1/4 WCI  27 
SAND POINT     CLOUDY    45  39  80 NE15G20   29.81F 
SPOKANE        CLOUDY    45  41  86 NE9       29.73F 
--------------------------------

REGIONAL REPORTS...ALBERTA
CITY           SKY/WX    TMP DP  RH WIND       PRES   REMARKS
CALGARY        CLOUDY    34  21  59 CALM      29.96F 
LETHBRIDGE     PTSUNNY   37  32  82 E8        29.96F WCI  31 
MEDICINE HAT   CLOUDY    37  32  82 SE3       30.01F 
EDMONTON       PTSUNNY   23  18  81 S2        29.99F 
WATERTON GATE  N/A       36  32  85 CALM       N/A   
CARDSTON       N/A       37  34  89 CALM       N/A   
MILK RIVER     N/A       36  30  79 E2         N/A   
--------------------------------

REGIONAL REPORTS...SASKATCHEWAN
CITY           SKY/WX    TMP DP  RH WIND       PRES   REMARKS
SWIFT CURRENT  CLOUDY    36  27  70 S5        30.04F WCI  32 
REGINA         PTCLDY    27  25  92 S2        30.07F 
VAL MARIE      N/A       28  27  96 E6         N/A   WCI  21 
ASSINIBOIA     N/A       32  27  82 SE3        N/A   
CORONACH       N/A       23  21  92 CALM       N/A   

--------------------------------